Regional Weather Roundup
Issued by NWS

Home | Current Version | Previous Version | Text Only | Print | Product List | Glossary Off
Versions: 1 2 3 4 5 6 7 8 9 10 11 12 13 14 15 16 17 18 19 20 21 22 23 24 25 26 27 28 29 30 31 32 33 34 35 36 37 38 39 40 41 42 43 44 45 46 47 48 49 50

000
ASUS43 KLOT 241504
RWRIL

ILLINOIS REGIONAL WEATHER ROUNDUP
NATIONAL WEATHER SERVICE CHICAGO/ROMEOVILLE IL
1000 AM CDT SAT JUN 24 2017

NOTE: "FAIR" INDICATES FEW OR NO CLOUDS BELOW 12,000 FEET WITH NO
SIGNIFICANT WEATHER AND/OR OBSTRUCTIONS TO VISIBILITY.

* THESE STATIONS ARE NOT UNDER NWS QUALITY CONTROL. THEY ALSO MAY NOT
  REPORT WEATHER SUCH AS PRECIPITATION OR FOG.

ILZ001-002-007-009-015-016-024-241600-
NORTHWEST ILLINOIS

CITY           SKY/WX    TMP DP  RH WIND       PRES   REMARKS
MOLINE         MOSUNNY   69  49  48 NW12      30.04S
STERLING*      SUNNY     68  55  63 NW10      30.02R
SAVANNA*       SUNNY     67  51  54 W9        30.02S
$$

ILZ003-004-008-010-011-017-018-241600-
NORTH CENTRAL ILLINOIS

CITY           SKY/WX    TMP DP  RH WIND       PRES   REMARKS
ROCKFORD       MOSUNNY   69  53  56 NW12      30.00R
FREEPORT*      PTSUNNY   63  50  61 NW13G18   30.01S
ROCHELLE*      PTSUNNY   66  53  63 NW14      30.01R
DE KALB*       MOSUNNY   66  55  65 W14       29.99S
PERU*          PTSUNNY   66  53  63 NW13G21   30.02S
$$

ILZ005-006-012>014-019>023-241600-
NORTHEAST ILLINOIS

CITY           SKY/WX    TMP DP  RH WIND       PRES   REMARKS
CHICAGO-OHARE  PTSUNNY   69  54  58 W8        29.95S
CHICAGO-MIDWAY PTSUNNY   70  56  61 W10       29.96R
AURORA         MOSUNNY   68  57  68 W13G20    29.99R
LANSING*       MOSUNNY   70  54  56 W9G16     29.97R
JOLIET*        MOSUNNY   70  56  61 W7        29.99R
WAUKEGAN       PTSUNNY   68  56  65 W9        29.93R
DUPAGE AIRPORT MOSUNNY   68  57  68 W10       29.96S
WHEELING       MOSUNNY   68  56  65 W10G21    29.96R
MORRIS*        MOSUNNY   69  55  62 NW14      29.98S
ROMEOVILLE*    PTSUNNY   68  54  60 W9G18     29.98S
NORTHERLY ISL    N/A     68  52  56 NW10        N/A
$$

LMZ740>746-241600-
SOUTHERN LAKE MICHIGAN

STATION/POSITION SKY/WX   TEMP    WIND        PRES    VSBY  WAVE
                          AIR SEA DIR/SP/G                  HT/PER
                          (F)     (DEG/KT/KT) (MB)    (MI)  (FT/S)
SOUTHERN BUOY              62 61  320/ 14/ 16 1012.5          3/ 5
WILMETTE HARBOR            65 64  280/ 10/ 12   N/A           2/ 3
HARRISON CRIB              67     270/ 13/ 14   N/A
BURNHAM HARBOR             69                   N/A
CALUMET HARBOR             69     240/  3/ 10 1013.8R
BURNS HARBOR               65     300/  6/  9 1014.9R
MICHIGAN CITY              65     270/ 13/ 14   N/A
MICHIGAN CITY 6N           65 68  290/ 10/ 14   N/A           3/ 4
ST. JOSEPH                 64 68  310/ 12/ 17 1014.1R         4/ 5
$$

ILZ025>027-034>036-040-047-049-050-058-095>099-241600-
WEST-CENTRAL ILLINOIS

CITY           SKY/WX    TMP DP  RH WIND       PRES   REMARKS
QUINCY         SUNNY     69  52  54 W10       30.12R
GALESBURG*     MOSUNNY   68  51  55 W9        30.08S
MACOMB*        MOSUNNY   68  52  56 W12       30.11S
JACKSONVILLE*  SUNNY     69  50  50 NW10G16   30.10R
PITTSFIELD*    MOSUNNY   70  51  50 NW9G16    30.13R
$$

ILZ028>032-037-038-041>044-048-051>054-059>061-241600-
CENTRAL ILLINOIS

CITY           SKY/WX    TMP DP  RH WIND       PRES   REMARKS
PONTIAC        MOSUNNY   68  59  73 NW13      30.03R
BLOOMINGTON    MOSUNNY   69  55  60 NW15G24   30.05R
DECATUR        MOSUNNY   70  56  61 NW9       30.05S
PEORIA         SUNNY     69  47  45 NW9G17    30.05S
LACON*         SUNNY     68  50  53 W10G17    30.03S
LINCOLN*       SUNNY     71  55  58 NW9       30.06S
SPRINGFIELD    MOSUNNY   71  55  56 NW15G23   30.07S
TAYLORVILLE    SUNNY     69  53  58 W10       30.08R
$$

ILZ033-039-045-046-055>057-062-063-241600-
EAST-CENTRAL ILLINOIS

CITY           SKY/WX    TMP DP  RH WIND       PRES   REMARKS
CHAMPAIGN      MOSUNNY   71  57  61 W12G20    30.03S
RANTOUL*       MOSUNNY   71  59  66 W10G18    30.02S
MATTOON        SUNNY     72  59  63 W12       30.04R
PARIS*         SUNNY     69  61  75 W8        30.03S
$$

ILZ079-100>102-241600-
SOUTHWEST ILLINOIS

CITY           SKY/WX    TMP DP  RH WIND       PRES   REMARKS
ALTON          MOSUNNY   70  50  49 NW14G21   30.10R
CAHOKIA*       SUNNY     74  44  34 NW15      30.11R
SPARTA*        MOSUNNY   72  55  55 NW8       30.11S
$$

ILZ064>066-069>071-074>076-080>082-084>086-088>090-092>094-241600-
SOUTH-CENTRAL ILLINOIS

CITY           SKY/WX    TMP DP  RH WIND       PRES   REMARKS
CARBONDALE     SUNNY     73  59  61 VRB7      30.10R
CAIRO*         SUNNY     74  60  61 NW7       30.10R
EFFINGHAM*     SUNNY     72  59  64 W9        30.07R
MARION         MOSUNNY   73  59  60 NW7       30.10R
MT. VERNON     SUNNY     72  58  61 CALM      30.09R
CENTRALIA*     SUNNY     73  60  63 W5        30.08R
SALEM*         SUNNY     73  59  61 W6        30.08S
METROPOLIS*    SUNNY     74  60  63 NW6       30.09S
$$

ILZ067-068-072-073-078-083-087-091-241600-
SOUTHEAST ILLINOIS

CITY           SKY/WX    TMP DP  RH WIND       PRES   REMARKS
LAWRENCEVILLE  SUNNY     72  59  63 W9        30.05S
FLORA*         SUNNY    N/A N/A N/A NW7       30.07S
FAIRFIELD*     SUNNY     72  59  62 NW3       30.06S
HARRISBURG*    SUNNY     74  60  63 NW5       30.09R
ROBINSON*      SUNNY     71  60  68 W7        30.05S
CARMI*         SUNNY     73  60  64 NW8       30.06S
$$

ABBREVIATIONS USED IN REMARKS
   TC - TEMPERATURE IN CELSIUS
  WCI - WIND CHILL INDEX
   HX - HEAT INDEX
  VSB - VISIBILITY
$$





USA.gov is the U.S. government's official web portal to all federal, state and local government web resources and services.